TimeCST,TemperatureF,Dew PointF,Humidity,Sea Level PressureIn,VisibilityMPH,Wind Direction,Wind SpeedMPH,Gust SpeedMPH,PrecipitationIn,Events,Conditions,WindDirDegrees,DateUTC
12:15 AM,30.2,30.2,100,30.14,0.8,South,5.8,-,N/A,,Overcast,170,2012-12-01 06:15:00
12:35 AM,30.2,30.2,100,30.13,1.0,South,6.9,-,N/A,,Overcast,170,2012-12-01 06:35:00
12:55 AM,30.2,30.2,100,30.13,0.8,SSE,4.6,-,N/A,,Overcast,160,2012-12-01 06:55:00
1:15 AM,30.2,30.2,100,30.12,0.5,SSE,3.5,-,N/A,Fog,Light Freezing Fog,160,2012-12-01 07:15:00
1:35 AM,30.2,30.2,100,30.11,0.5,SSE,4.6,-,N/A,Fog,Light Freezing Fog,160,2012-12-01 07:35:00
1:55 AM,30.2,30.2,100,30.10,0.8,Calm,Calm,-,N/A,,Overcast,0,2012-12-01 07:55:00
2:15 AM,30.2,30.2,100,30.09,1.0,SSE,6.9,-,N/A,,Overcast,160,2012-12-01 08:15:00
2:35 AM,30.2,30.2,100,30.09,1.2,South,5.8,-,N/A,,Overcast,170,2012-12-01 08:35:00
2:55 AM,32.0,32.0,100,30.08,1.5,South,9.2,-,N/A,,Overcast,170,2012-12-01 08:55:00
3:15 AM,32.0,32.0,100,30.08,1.5,SSE,9.2,-,N/A,,Overcast,160,2012-12-01 09:15:00
3:35 AM,32.0,32.0,100,30.07,1.2,SSE,10.4,-,N/A,,Overcast,160,2012-12-01 09:35:00
3:55 AM,32.0,32.0,100,30.07,1.2,SSE,5.8,-,N/A,,Overcast,160,2012-12-01 09:55:00
4:15 AM,32.0,32.0,100,30.06,1.2,South,6.9,-,N/A,,Overcast,170,2012-12-01 10:15:00
4:35 AM,32.0,32.0,100,30.06,1.2,SSE,5.8,-,N/A,,Overcast,160,2012-12-01 10:35:00
4:55 AM,32.0,32.0,100,30.05,1.2,SSE,6.9,-,N/A,,Overcast,160,2012-12-01 10:55:00
5:15 AM,32.0,32.0,100,30.04,1.0,SSE,6.9,-,N/A,,Overcast,150,2012-12-01 11:15:00
5:35 AM,32.0,32.0,100,30.02,1.0,SSE,8.1,-,N/A,,Overcast,150,2012-12-01 11:35:00
5:55 AM,32.0,32.0,100,30.01,1.0,SSE,8.1,-,N/A,,Overcast,150,2012-12-01 11:55:00
6:15 AM,32.0,32.0,100,30.01,1.0,SSE,5.8,-,N/A,,Overcast,160,2012-12-01 12:15:00
6:35 AM,32.0,32.0,100,30.01,1.0,South,8.1,16.1,N/A,,Overcast,170,2012-12-01 12:35:00
6:55 AM,32.0,32.0,100,30.01,1.2,South,12.7,18.4,N/A,,Overcast,180,2012-12-01 12:55:00
7:15 AM,32.0,32.0,100,30.00,0.8,SSE,8.1,-,N/A,,Overcast,160,2012-12-01 13:15:00
7:35 AM,32.0,32.0,100,29.99,0.8,South,8.1,-,N/A,,Overcast,170,2012-12-01 13:35:00
7:55 AM,32.0,32.0,100,29.99,0.5,South,8.1,-,N/A,Fog,Fog,170,2012-12-01 13:55:00
8:15 AM,32.0,32.0,100,29.97,0.5,SSE,8.1,-,N/A,Fog,Fog,160,2012-12-01 14:15:00
8:35 AM,32.0,32.0,100,29.97,0.5,South,8.1,-,N/A,Fog,Fog,170,2012-12-01 14:35:00
8:55 AM,32.0,32.0,100,29.96,0.5,South,10.4,-,N/A,Fog,Fog,170,2012-12-01 14:55:00
9:15 AM,32.0,32.0,100,29.96,0.5,South,10.4,17.3,N/A,Fog,Fog,180,2012-12-01 15:15:00
9:35 AM,32.0,32.0,100,29.96,0.2,South,9.2,-,N/A,Fog,Fog,180,2012-12-01 15:35:00
9:55 AM,33.8,33.8,100,29.96,0.2,South,6.9,-,0.01,Fog,Fog,170,2012-12-01 15:55:00
10:15 AM,33.8,33.8,100,29.94,0.2,SSE,5.8,-,0.01,Fog,Fog,150,2012-12-01 16:15:00
10:35 AM,33.8,33.8,100,29.93,0.5,SSE,10.4,-,0.01,Fog,Fog,160,2012-12-01 16:35:00
10:55 AM,33.8,33.8,100,29.92,0.5,SSE,8.1,-,0.01,Fog,Fog,160,2012-12-01 16:55:00
11:15 AM,33.8,33.8,100,29.92,0.8,South,9.2,-,N/A,,Overcast,170,2012-12-01 17:15:00
11:35 AM,33.8,33.8,100,29.91,1.0,South,6.9,-,N/A,,Overcast,170,2012-12-01 17:35:00
11:55 AM,33.8,33.8,100,29.91,1.0,South,6.9,16.1,N/A,,Overcast,180,2012-12-01 17:55:00
12:15 PM,33.8,33.8,100,29.89,0.8,South,8.1,-,N/A,,Overcast,170,2012-12-01 18:15:00
12:35 PM,33.8,33.8,100,29.87,0.8,South,10.4,-,N/A,,Overcast,170,2012-12-01 18:35:00
12:55 PM,35.6,35.6,100,29.85,0.8,SSE,9.2,-,N/A,,Overcast,150,2012-12-01 18:55:00
1:15 PM,33.8,33.8,100,29.84,0.8,SSE,8.1,-,N/A,,Overcast,160,2012-12-01 19:15:00
1:35 PM,33.8,33.8,100,29.84,0.8,South,8.1,-,N/A,,Drizzle,180,2012-12-01 19:35:00
1:55 PM,35.6,35.6,100,29.81,0.8,SSE,8.1,-,N/A,,Drizzle,160,2012-12-01 19:55:00
2:15 PM,35.6,35.6,100,29.80,1.0,SSE,6.9,-,N/A,,Light Drizzle,160,2012-12-01 20:15:00
2:35 PM,35.6,35.6,100,29.79,1.2,SSE,6.9,-,N/A,,Overcast,160,2012-12-01 20:35:00
2:55 PM,35.6,35.6,100,29.78,1.2,SSE,5.8,-,N/A,,Overcast,160,2012-12-01 20:55:00
3:15 PM,35.6,35.6,100,29.78,1.5,SSE,5.8,-,N/A,,Overcast,160,2012-12-01 21:15:00
3:35 PM,35.6,35.6,100,29.77,1.2,SSE,6.9,-,N/A,,Overcast,160,2012-12-01 21:35:00
3:55 PM,35.6,35.6,100,29.77,1.5,SSE,8.1,-,N/A,,Overcast,160,2012-12-01 21:55:00
4:15 PM,35.6,35.6,100,29.76,1.5,SSE,5.8,-,N/A,,Overcast,160,2012-12-01 22:15:00
4:35 PM,35.6,35.6,100,29.77,2.0,South,5.8,-,N/A,,Overcast,180,2012-12-01 22:35:00
4:55 PM,35.6,35.6,100,29.77,1.8,South,6.9,-,N/A,,Overcast,180,2012-12-01 22:55:00
5:15 PM,35.6,35.6,100,29.76,1.2,SSE,6.9,-,N/A,,Light Drizzle,160,2012-12-01 23:15:00
5:55 PM,35.6,35.6,100,29.75,0.8,South,3.5,-,N/A,,Overcast,170,2012-12-01 23:55:00
6:15 PM,35.6,35.6,100,29.75,0.5,South,3.5,-,N/A,Fog,Fog,180,2012-12-02 00:15:00
6:35 PM,35.6,35.6,100,29.76,0.5,Calm,Calm,-,N/A,Fog,Fog,0,2012-12-02 00:35:00
6:55 PM,35.6,35.6,100,29.77,0.2,SW,3.5,-,N/A,Fog,Fog,220,2012-12-02 00:55:00
7:15 PM,35.6,35.6,100,29.78,0.5,SSW,3.5,-,N/A,,Drizzle,210,2012-12-02 01:15:00
7:55 PM,35.6,35.6,100,29.76,0.8,Calm,Calm,-,N/A,,Drizzle,0,2012-12-02 01:55:00
8:15 PM,35.6,35.6,100,29.76,0.8,Calm,Calm,-,0.01,,Drizzle,0,2012-12-02 02:15:00
8:35 PM,35.6,35.6,100,29.76,0.8,Calm,Calm,-,0.01,,Drizzle,0,2012-12-02 02:35:00
8:55 PM,35.6,35.6,100,29.75,0.8,Calm,Calm,-,0.01,,Light Drizzle,0,2012-12-02 02:55:00
9:15 PM,35.6,35.6,100,29.76,0.2,Calm,Calm,-,N/A,Snow,Light Snow,0,2012-12-02 03:15:00
9:35 PM,37.4,37.4,100,29.75,0.8,Calm,Calm,-,N/A,,Overcast,0,2012-12-02 03:35:00
9:55 PM,37.4,37.4,100,29.74,0.5,SW,3.5,-,N/A,Fog,Fog,220,2012-12-02 03:55:00
10:15 PM,35.6,35.6,100,29.75,0.2,SW,4.6,-,N/A,Fog,Fog,230,2012-12-02 04:15:00
10:35 PM,35.6,35.6,100,29.75,0.2,SW,5.8,-,N/A,Snow,Light Snow,230,2012-12-02 04:35:00
10:55 PM,35.6,35.6,100,29.75,0.2,WSW,5.8,-,N/A,Snow,Light Snow,240,2012-12-02 04:55:00
11:15 PM,35.6,35.6,100,29.75,0.2,West,4.6,-,N/A,Snow,Light Snow,260,2012-12-02 05:15:00
11:35 PM,35.6,35.6,100,29.76,0.2,West,4.6,-,N/A,Snow,Light Snow,260,2012-12-02 05:35:00
11:55 PM,35.6,35.6,100,29.76,0.2,WSW,4.6,-,N/A,Snow,Light Snow,250,2012-12-02 05:55:00